Location: Newark
(43.0000°N, 1.6781°W)
Time: 05:55:02
(UTC+00:00)

N. Korean satellite - Pass Details

Date: 10 December 2021
Orbit: 447 x 491 km, 97.3° (Epoch: 25 January)

Event Time Altitude Azimuth Distance (km) Brightness Sun altitude
Rises 06:39:22 0° 348° (NNW) 2,459 9.8 -8.6°
Enters shadow 06:41:26 - 329° (NNW) 1,846 9.0 -8.2°
Exits shadow 06:44:08 10° 287° (WNW) 1,580 8.5 -7.8°
Sets 06:47:52 0° 243° (WSW) 2,449 9.8 -7.2°
